"Pseudo-MPEC" for gb00783

Created 2025 Jan 11 14:31:10 UT using Find_Orb

Click here for an explanation of pseudo-MPECs

 
 Astrometry: 
     gb00783*KC2025 01 09.85712 07 28 51.78 +39 17 02.9    ~19Ll 17.7 GXNEOCPL51
     gb00783 KC2025 01 09.85774 07 28 51.48 +39 18 05.6    ~19Ll 17.7 GXNEOCPL51
     gb00783 KC2025 01 09.85836 07 28 51.13 +39 19 07.0    ~19Ll 17.5 GXNEOCPL51
     gb00783 KC2025 01 09.90620807 28 36.922+40 36 40.00   ~19M2 17.8 GWNEOCPJ95
     gb00783 KC2025 01 09.90687407 28 36.600+40 37 45.44   ~19M2 18.2 GWNEOCPJ95
     gb00783 KC2025 01 09.90752707 28 36.257+40 38 50.14   ~19M2 18.0 GWNEOCPJ95
     gb00783 KC2025 01 09.90818107 28 35.930+40 39 54.90   ~19M2 18.0 GWNEOCPJ95
     gb00783 KC2025 01 09.91320107 28 33.329+40 48 08.82   ~19MH 17.9 GWNEOCPJ95
     gb00783 KC2025 01 09.91586 07 28 19.32 +40 53 46.7    ~19MH 17.5 GXNEOCPL51
     gb00783 KC2025 01 09.91588007 28 31.944+40 52 32.63   ~19MH 17.8 GWNEOCPJ95
     gb00783 KC2025 01 09.91675 07 28 18.80 +40 55 13.2    ~19MH 17.3 GXNEOCPL51
     gb00783 KC2025 01 09.91764 07 28 18.28 +40 56 39.8    ~19MH 17.8 GXNEOCPL51
     gb00783 1C2025 01 09.93042 07 28 08.92 +41 17 17.3    ~19NH 18.1 GXNEOCPC40
     gb00783 KC2025 01 09.93083307 28 23.760+41 16 58.66   ~19NV 18.7 GVNEOCPZ80
     gb00783 1C2025 01 09.93279 07 28 07.68 +41 21 06.9    ~19NH 18.7 GXNEOCPC40
     gb00783 1C2025 01 09.93515 07 28 06.28 +41 24 56.2    ~19NH 18.5 GXNEOCPC40
     gb00783 KC2025 01 09.94061307 28 18.583+41 32 52.01   ~19NV 18.4 GVNEOCPZ80
     gb00783 KC2025 01 09.94062707 28 08.54 +41 33 25.0    ~1A02 18.3 GXNEOCPL18
     gb00783 KC2025 01 09.94531907 28 05.85 +41 40 58.6    ~1A02 18.4 GXNEOCPL18
     gb00783 KC2025 01 09.94995807 28 03.27 +41 48 27.3    ~1A02 17.7 GXNEOCPL18
     gb00783 KB2025 01 10.01493007 27 37.43 +43 32 22.3    ~1A3H 18.1 GXNEOCP958
     gb00783 KB2025 01 10.01608607 27 36.80 +43 34 10.0    ~1A3H 18.5 GXNEOCP958
     gb00783 KB2025 01 10.11071907 26 40.43 +45 59 31.7    ~1A3H 18.2 GXNEOCP958
     gb00783 KB2025 01 10.11176807 26 39.97 +46 01 05.4    ~1A3H 18.2 GXNEOCP958
     gb00783 KB2025 01 10.11279707 26 39.33 +46 02 39.1    ~1A3H 18.4 GXNEOCP958
     gb00783 KC2025 01 10.54478607 23 24.86 +55 59 14.9    ~1B0Hx18.2 VqNEOCPQ10
     gb00783 KC2025 01 10.54533107 23 24.51 +55 59 55.3    ~1B0Hx18.7 VqNEOCPQ10
     gb00783 KB2025 01 10.60882707 22 53.65 +57 16 31.0    ~1AFl 18.9 GVNEOCPP13
     gb00783 KB2025 01 10.61663307 22 47.70 +57 25 58.0    ~1AFl 18.1 GVNEOCPP13
     gb00783 KB2025 01 10.62438907 22 41.63 +57 35 16.7    ~1AFl 18.6 GVNEOCPP13
     gb00783 KB2025 01 10.62968007 22 37.63 +57 41 37.2    ~1AFl 18.6 GVNEOCPP13
     gb00783 KB2025 01 10.63290207 22 34.84 +57 45 29.4    ~1AFl 19.3 GVNEOCPP13
     gb00783 KB2025 01 10.72767907 22 01.037+59 32 15.50   ~1ALV 18.6 GXNEOCPL34
     gb00783 KB2025 01 10.77141907 21 31.162+60 22 07.18   ~1ALV 18.7 GXNEOCPL34
     gb00783 KB2025 01 10.81524007 20 58.049+61 10 52.03   ~1ALV 18.7 GXNEOCPL34
     gb00783 KB2025 01 10.83453007 20 42.398+61 31 55.52   ~1ALV 18.5 GXNEOCPL34
     gb00783 KC2025 01 10.85454107 20 26.378+61 51 55.62   ~1ALH 18.9 GWNEOCPJ95
     gb00783 KC2025 01 10.86013307 20 21.900+61 57 54.25   ~1ALH 19.1 GWNEOCPJ95
     gb00783 KC2025 01 10.86556607 20 17.616+62 03 42.44   ~1ALH 18.7 GWNEOCPJ95
     gb00783 KC2025 01 10.87110207 20 13.250+62 09 35.93   ~1ALH 18.7 GWNEOCPJ95
     gb00783 KB2025 01 10.87688 07 20 04.656+62 16 14.23   ~1AMH 18.0 VZNEOCPK74
     gb00783 KB2025 01 10.89896 07 19 45.814+62 39 22.86   ~1AMH 18.1 VZNEOCPK74
     gb00783 KB2025 01 10.91282 07 19 33.701+62 53 45.24   ~1AN2 18.7 VZNEOCPK74
     gb00783 KB2025 01 10.91986 07 19 27.569+63 00 59.58   ~1AN2 18.1 VZNEOCPK74
     gb00783 KB2025 01 11.38286207 13 35.655+69 57 40.04   ~1BAH 20.4 GXNEOCPQ06
     gb00783 KB2025 01 11.39242607 13 26.042+70 05 28.33   ~1BAH 19.0 GXNEOCPQ06
     gb00783 KB2025 01 11.40199207 13 16.219+70 13 15.01   ~1BAH 20.5 GXNEOCPQ06

Station data:
(958) Observatoire de Dax  (N43.693381 W1.030530)  France.  Observer P.
   Dupouy. 0.32-m Schmidt-Cassegrain.
(C40) Kuban State University Astrophysical Observatory  (N45.019544
   E39.030800)  Russia.  Observer A. Ivanov. 0.51-m f/8 reflector + CCD.
(J95) Great Shefford  (N51.474969 W1.447003)  UK/England.  Observer P.
   Birtwhistle. 0.41-m f/6.3 Schmidt-Cassegrain + CCD.
(K74) Muensterschwarzach Observatory, Schwarzach  (N49.805276 E10.236400)
   Germany.  Observer C. Gerhard. 0.30-m f/3.75 Newtonian reflector + CCD.
(L18) QOS Observatory, Zalistci  (N48.848292 E26.718280)  Ukraine.  Observers
   O. V. Kravchenko, Y. V. Tanasiychuk. Measurer A. M. Kozhukhov. 0.50-m
   f/3.8 reflector + CCD.
(L34) Galhassin Robotic Telescope, Isnello  (N37.939358 E14.020610)  Italy.
   Observer A. Nastasi. 0.40-m reflector + CCD.
(L51) MARGO, Nauchnij  (N44.729397 E34.016400)  Ukraine.  Observer G. Borisov.
    0.4-m f/2.3 astrograph + CCD.
(P13) Baihuashan Observatory, Beijing  (N39.837554 E115.573330)  China.
(Q06) Tarui Observatory, Tarui  (N35.394791 E136.495470)  Japan.
(Q10) Toyokawa Observatory  (N34.843616 E137.329440)  Japan.
(Z80) Northolt Branch Observatory  (N51.554659 W0.371920)  UK/England.
   Observer G. Wells. Measurer D. Bamberger. 0.25-m f/8 Ritchey-Chrétien +
   CCD.

Orbital elements:  gb00783
   Perihelion 2025 Jan 6.67366 +/- 0.00586 TT = 16:10:04 (JD 2460682.17366)
Epoch 2025 Jan 11.0 TT = JDT 2460686.5   Earth MOID: 0.0212      AutoNEOCP
M   2.97507095 +/- 0.006            (J2000 ecliptic)
n   0.68766463 +/- 0.000716         Peri.  357.20763 +/- 0.0059
a   1.27121280 +/- 0.000882         Node   108.94598 +/- 0.000043
e   0.2099361 +/- 0.000534          Incl.   35.80938 +/- 0.026
P   1.433/523.501d         H 25.43  G  0.15   U  7.9
q 1.00433924 +/- 1.8e-5    Q 1.53808636 +/- 0.00175
45 of 47 observations 2025 Jan. 9-11 (37.1 hr); mean residual 0".76
Residuals in arcseconds: 
250109 L51  .44-  1.8+    250109 Z80  .46+  1.1+    250110 L34  .24+  .01-    
250109 L51  .04-  2.6+    250109 L18  .50+  .46+    250110 L34  .30-  .66-    
250109 L51  .22-  2.0+    250109 L18  .24-  .35+    250110 L34  .07+  .35-    
250109 J95  .12-  .55-    250109 L18  .02-  1.3+    250110 L34  .35-  .18-    
250109 J95  .09+  .76-    250110 958  .13-  .80+    250110 J95  .25+  .27+    
250109 J95  .01-  .41-    250110 958  .46+  .43-    250110 J95  .38-  .33-    
250109 J95  .08+  .08-    250110 958  .98-  .30+    250110 J95  .22-  .00     
250109 J95  .15-  .23-    250110 958  .65+  .49-    250110 J95  .23+  .19+    
250109 L51  .10+  2.7+    250110 958  .27+  .57+    250110 K74  .32-  .52+    
250109 J95  .15-  .30+    250110 Q10(61.8- 31.5+)   250110 K74  .20-  .36+    
250109 L51  .10-  2.3+    250110 Q10(61.3- 31.0+)   250110 K74  .25-  .85+    
250109 L51  .30-  2.1+    250110 P13  .42-  .90-    250110 K74  .37+  .32+    
250109 C40  .42-  .44+    250110 P13  .17+  .01+    250111 Q06  .20+  .25-    
250109 Z80  .06+  .85+    250110 P13  .04-  1.1-    250111 Q06  .21+  .40-    
250109 C40  .70+  .38+    250110 P13  1.2+  .89-    250111 Q06  .33+  .26+    
250109 C40  .04-  1.2+    250110 P13  .79-  .33+    

Ephemerides (geocentric):
Date (UTC) HH   RA             Dec           delta  r     elong  mag " sig PA
---- --------  ------------   ------------  ------ ------ -----  --- --------
2025 01 11 15  07 08 32.415   +72 58 50.30  .03407 1.0051 128.7 20.0 .162 109
2025 01 11 16  07 07 42.496   +73 27 39.02  .03444 1.0051 128.2 20.0 .165 110
2025 01 11 17  07 06 50.838   +73 55 50.11  .03481 1.0051 127.7 20.0 .168 111
2025 01 11 18  07 05 57.351   +74 23 24.48  .03519 1.0051 127.2 20.1 .171 113
2025 01 11 19  07 05 01.938   +74 50 23.03  .03556 1.0051 126.8 20.1 .174 114
2025 01 11 20  07 04 04.494   +75 16 46.64  .03594 1.0052 126.3 20.1 .177 115
2025 01 11 21  07 03 04.908   +75 42 36.16  .03632 1.0052 125.9 20.2 .180 116
2025 01 11 22  07 02 03.061   +76 07 52.42  .03670 1.0052 125.4 20.2 .184 117
2025 01 11 23  07 00 58.823   +76 32 36.23  .03709 1.0052 125.0 20.2 .187 118
2025 01 12 00  06 59 52.058   +76 56 48.36  .03747 1.0052 124.6 20.3 .190 118
2025 01 12 01  06 58 42.616   +77 20 29.58  .03786 1.0052 124.2 20.3 .194 119
2025 01 12 02  06 57 30.336   +77 43 40.63  .03825 1.0052 123.8 20.3 .197 120
2025 01 12 03  06 56 15.046   +78 06 22.20  .03864 1.0053 123.4 20.4 .201 121
2025 01 12 04  06 54 56.558   +78 28 34.99  .03903 1.0053 123.0 20.4 .204 121
2025 01 12 05  06 53 34.671   +78 50 19.67  .03943 1.0053 122.6 20.4 .208 122
2025 01 12 06  06 52 09.163   +79 11 36.87  .03982 1.0053 122.3 20.5 .212 122
2025 01 12 07  06 50 39.798   +79 32 27.20  .04022 1.0053 121.9 20.5 .215 123
2025 01 12 08  06 49 06.316   +79 52 51.25  .04062 1.0053 121.5 20.5 .219 123
2025 01 12 09  06 47 28.436   +80 12 49.59  .04102 1.0053 121.2 20.6 .223 124
2025 01 12 10  06 45 45.851   +80 32 22.76  .04142 1.0054 120.8 20.6 .226 124
2025 01 12 11  06 43 58.225   +80 51 31.27  .04183 1.0054 120.5 20.6 .230 125
2025 01 12 12  06 42 05.191   +81 10 15.61  .04223 1.0054 120.2 20.7 .234 125
2025 01 12 13  06 40 06.350   +81 28 36.23  .04264 1.0054 119.9 20.7 .238 125
2025 01 12 14  06 38 01.260   +81 46 33.57  .04305 1.0054 119.5 20.7 .241 125
2025 01 12 15  06 35 49.438   +82 04 08.03  .04345 1.0054 119.2 20.7 .245 125
2025 01 12 16  06 33 30.353   +82 21 19.99  .04386 1.0054 118.9 20.8 .249 125
2025 01 12 17  06 31 03.418   +82 38 09.79  .04428 1.0055 118.6 20.8 .253 125
2025 01 12 18  06 28 27.985   +82 54 37.73  .04469 1.0055 118.3 20.8 .256 125
2025 01 12 19  06 25 43.341   +83 10 44.08  .04510 1.0055 118.0 20.9 .260 125
2025 01 12 20  06 22 48.692   +83 26 29.09  .04551 1.0055 117.8 20.9 .264 125
2025 01 12 21  06 19 43.161   +83 41 52.93  .04593 1.0055 117.5 20.9 .268 125
2025 01 12 22  06 16 25.773   +83 56 55.77  .04635 1.0055 117.2 20.9 .271 125
2025 01 12 23  06 12 55.442   +84 11 37.70  .04676 1.0056 116.9 21.0 .275 124
2025 01 13 00  06 09 10.963   +84 25 58.76  .04718 1.0056 116.7 21.0 .279 124
2025 01 13 01  06 05 10.992   +84 39 58.94  .04760 1.0056 116.4 21.0 .282 123
2025 01 13 02  06 00 54.029   +84 53 38.15  .04802 1.0056 116.1 21.0 .286 123
2025 01 13 03  05 56 18.406   +85 06 56.25  .04844 1.0056 115.9 21.1 .290 122
2025 01 13 04  05 51 22.260   +85 19 53.00  .04886 1.0056 115.6 21.1 .293 121
2025 01 13 05  05 46 03.519   +85 32 28.05  .04929 1.0057 115.4 21.1 .297 120
2025 01 13 06  05 40 19.880   +85 44 40.96  .04971 1.0057 115.2 21.1 .300 119
2025 01 13 07  05 34 08.793   +85 56 31.18  .05013 1.0057 114.9 21.2 .304 118
2025 01 13 08  05 27 27.443   +86 07 58.00  .05056 1.0057 114.7 21.2 .307 117
2025 01 13 09  05 20 12.747   +86 19 00.57  .05098 1.0057 114.5 21.2 .311 115
2025 01 13 10  05 12 21.354   +86 29 37.84  .05141 1.0057 114.2 21.2 .314 114
2025 01 13 11  05 03 49.674   +86 39 48.60  .05184 1.0058 114.0 21.3 .318 112
2025 01 13 12  04 54 33.927   +86 49 31.39  .05226 1.0058 113.8 21.3 .321 110
2025 01 13 13  04 44 30.232   +86 58 44.55  .05269 1.0058 113.6 21.3 .325 108
2025 01 13 14  04 33 34.756   +87 07 26.14  .05312 1.0058 113.4 21.3 .328 105